Retour au catalogue

STARLINK-35177

ActifCommunicationsSSO
NORAD 65673·PAYLOAD·🇺🇸 United States

Lancé Sep 19, 2025 depuis Vandenberg Space Force Base

Loading…

Prochains Passages (prochaines 24 heures)

TLE

FraisSource: CelesTrak SupGP

Époque: Sep 15, 2026, 04:15 UTC

1 65673C 25211X   26258.17756944 -.00052947  00000+0 -16436-2 0  2582
2 65673  97.2834 298.5209 0000858  96.2493 124.3860 15.33467480    17

Suivez STARLINK-35177 en temps réel avec AllMySat

Download on the App Store